Time,TemperatureF,DewpointF,PressureIn,WindDirection,WindDirectionDegrees,WindSpeedMPH,WindSpeedGustMPH,Humidity,HourlyPrecipIn,Conditions,Clouds,dailyrainin,SoftwareType,DateUTC
2013-08-03 00:01:00,69.6,59.8,30.00,NNW,337,0.0,0.0,71,0.00,,,0.00,WUHU21623XXSP,2013-08-03 04:01:00,
2013-08-03 00:06:00,69.6,59.8,30.01,SW,225,0.0,0.0,71,0.00,,,0.00,WUHU21623XXSP,2013-08-03 04:06:00,
2013-08-03 00:12:00,69.6,59.8,30.01,SW,225,0.0,0.0,71,0.00,,,0.00,WUHU21623XXSP,2013-08-03 04:12:00,
2013-08-03 00:17:00,69.6,59.8,30.01,SSW,202,0.0,0.0,71,0.00,,,0.00,WUHU21623XXSP,2013-08-03 04:17:00,
2013-08-03 00:22:00,69.6,59.8,30.01,SSW,202,0.0,0.0,71,0.00,,,0.00,WUHU21623XXSP,2013-08-03 04:22:00,
2013-08-03 00:27:00,69.6,59.8,30.01,SSW,202,0.0,0.0,71,0.00,,,0.00,WUHU21623XXSP,2013-08-03 04:27:00,
2013-08-03 00:32:00,69.6,59.8,30.01,SSW,202,0.0,0.0,71,0.00,,,0.00,WUHU21623XXSP,2013-08-03 04:32:00,
2013-08-03 00:37:00,69.6,59.8,30.01,SSW,202,0.0,0.0,71,0.00,,,0.00,WUHU21623XXSP,2013-08-03 04:37:00,
2013-08-03 00:42:00,69.6,59.8,30.01,SSW,202,0.0,0.0,71,0.00,,,0.00,WUHU21623XXSP,2013-08-03 04:42:00,
2013-08-03 00:47:00,69.6,59.8,30.01,SSW,202,0.0,0.0,71,0.00,,,0.00,WUHU21623XXSP,2013-08-03 04:47:00,
2013-08-03 00:52:00,69.6,59.8,30.01,SW,225,0.0,0.0,71,0.00,,,0.00,WUHU21623XXSP,2013-08-03 04:52:00,
2013-08-03 00:57:00,69.6,59.8,30.01,SW,225,0.0,0.0,71,0.00,,,0.00,WUHU21623XXSP,2013-08-03 04:57:00,
2013-08-03 01:02:00,69.6,59.8,30.01,SW,225,0.0,0.0,71,0.00,,,0.00,WUHU21623XXSP,2013-08-03 05:02:00,
2013-08-03 01:07:00,69.6,59.8,30.01,South,180,0.0,0.0,71,0.00,,,0.00,WUHU21623XXSP,2013-08-03 05:07:00,
2013-08-03 01:12:00,69.6,60.1,30.01,South,180,0.0,0.0,72,0.00,,,0.00,WUHU21623XXSP,2013-08-03 05:12:00,
2013-08-03 01:17:00,69.6,60.1,30.01,South,180,0.0,0.0,72,0.00,,,0.00,WUHU21623XXSP,2013-08-03 05:17:00,
2013-08-03 01:22:00,69.6,60.1,30.01,SSW,202,1.1,1.1,72,0.00,,,0.00,WUHU21623XXSP,2013-08-03 05:22:00,
2013-08-03 01:27:00,69.6,60.1,30.01,ESE,112,0.0,1.1,72,0.00,,,0.00,WUHU21623XXSP,2013-08-03 05:27:00,
2013-08-03 01:32:00,69.6,60.1,30.01,ESE,112,0.0,0.0,72,0.00,,,0.00,WUHU21623XXSP,2013-08-03 05:32:00,
2013-08-03 01:37:00,69.6,60.1,30.01,ESE,112,0.0,0.0,72,0.00,,,0.00,WUHU21623XXSP,2013-08-03 05:37:00,
2013-08-03 01:42:00,69.6,60.1,30.01,ESE,112,0.0,0.0,72,0.00,,,0.00,WUHU21623XXSP,2013-08-03 05:42:00,
2013-08-03 01:47:00,69.6,60.1,30.01,East,90,0.0,0.0,72,0.00,,,0.00,WUHU21623XXSP,2013-08-03 05:47:00,
2013-08-03 01:52:00,69.4,60.0,30.01,ESE,112,0.0,0.0,72,0.00,,,0.00,WUHU21623XXSP,2013-08-03 05:52:00,
2013-08-03 01:57:00,69.4,60.0,30.01,ESE,112,0.0,0.0,72,0.00,,,0.00,WUHU21623XXSP,2013-08-03 05:57:00,
2013-08-03 02:02:00,69.4,60.0,30.01,ESE,112,0.0,0.0,72,0.00,,,0.00,WUHU21623XXSP,2013-08-03 06:02:00,
2013-08-03 02:07:00,69.4,60.4,30.01,ESE,112,0.0,0.0,73,0.00,,,0.00,WUHU21623XXSP,2013-08-03 06:07:00,
2013-08-03 02:12:00,69.3,60.2,30.01,ESE,112,0.0,0.0,73,0.00,,,0.00,WUHU21623XXSP,2013-08-03 06:12:00,
2013-08-03 02:17:00,69.1,60.0,30.01,ESE,112,0.0,0.0,73,0.00,,,0.00,WUHU21623XXSP,2013-08-03 06:17:00,
2013-08-03 02:22:00,69.1,60.0,30.01,ESE,112,0.0,0.0,73,0.00,,,0.00,WUHU21623XXSP,2013-08-03 06:22:00,
2013-08-03 02:27:00,69.1,60.4,30.01,ESE,112,0.0,0.0,74,0.00,,,0.00,WUHU21623XXSP,2013-08-03 06:27:00,
2013-08-03 02:32:00,68.9,60.2,30.01,ESE,112,0.0,0.0,74,0.00,,,0.00,WUHU21623XXSP,2013-08-03 06:32:00,
2013-08-03 02:37:00,68.9,60.2,30.01,ESE,112,0.0,0.0,74,0.00,,,0.00,WUHU21623XXSP,2013-08-03 06:37:00,
2013-08-03 02:42:00,68.9,60.2,30.01,ESE,112,0.0,0.0,74,0.00,,,0.00,WUHU21623XXSP,2013-08-03 06:42:00,
2013-08-03 02:47:00,68.7,60.1,30.01,ESE,112,0.0,0.0,74,0.00,,,0.00,WUHU21623XXSP,2013-08-03 06:47:00,
2013-08-03 02:52:00,68.7,60.1,30.01,SSE,157,0.0,0.0,74,0.00,,,0.00,WUHU21623XXSP,2013-08-03 06:52:00,
2013-08-03 02:57:00,68.7,59.7,30.02,SSE,157,0.0,0.0,73,0.00,,,0.00,WUHU21623XXSP,2013-08-03 06:57:00,
2013-08-03 03:02:00,68.7,60.1,30.01,SSE,157,0.0,0.0,74,0.00,,,0.00,WUHU21623XXSP,2013-08-03 07:02:00,
2013-08-03 03:07:00,68.7,60.1,30.01,SSE,157,0.0,0.0,74,0.00,,,0.00,WUHU21623XXSP,2013-08-03 07:07:00,
2013-08-03 03:12:00,68.7,60.1,30.02,SSE,157,0.0,0.0,74,0.00,,,0.00,WUHU21623XXSP,2013-08-03 07:12:00,
2013-08-03 03:17:00,68.5,60.3,30.01,SSE,157,0.0,0.0,75,0.00,,,0.00,WUHU21623XXSP,2013-08-03 07:17:00,
2013-08-03 03:22:00,68.5,60.7,30.01,SSE,157,0.0,0.0,76,0.00,,,0.00,WUHU21623XXSP,2013-08-03 07:22:00,
2013-08-03 03:27:00,68.4,60.5,30.02,SSE,157,0.0,0.0,76,0.00,,,0.00,WUHU21623XXSP,2013-08-03 07:27:00,
2013-08-03 03:32:00,68.2,60.4,30.02,SSE,157,0.0,0.0,76,0.00,,,0.00,WUHU21623XXSP,2013-08-03 07:32:00,
2013-08-03 03:37:00,68.2,60.4,30.02,SSE,157,0.0,0.0,76,0.00,,,0.00,WUHU21623XXSP,2013-08-03 07:37:00,
2013-08-03 03:42:00,68.0,60.4,30.02,SSE,157,0.0,0.0,76,0.00,,,0.00,WUHU21623XXSP,2013-08-03 07:42:00,
2013-08-03 03:47:00,67.8,60.0,30.02,SSE,157,0.0,0.0,76,0.00,,,0.00,WUHU21623XXSP,2013-08-03 07:47:00,
2013-08-03 03:52:00,67.8,60.0,30.02,SSE,157,0.0,0.0,77,0.00,,,0.00,WUHU21623XXSP,2013-08-03 07:52:00,
2013-08-03 03:57:00,67.8,60.0,30.01,SSE,157,0.0,0.0,76,0.00,,,0.00,WUHU21623XXSP,2013-08-03 07:57:00,
2013-08-03 04:02:00,67.8,60.0,30.02,SSE,157,0.0,0.0,76,0.00,,,0.00,WUHU21623XXSP,2013-08-03 08:02:00,
2013-08-03 04:07:00,67.8,60.0,30.02,SSE,157,0.0,0.0,76,0.00,,,0.00,WUHU21623XXSP,2013-08-03 08:07:00,
2013-08-03 04:12:00,67.8,60.0,30.01,SSE,157,0.0,0.0,76,0.00,,,0.00,WUHU21623XXSP,2013-08-03 08:12:00,
2013-08-03 04:17:00,67.8,60.0,30.01,SSE,157,0.0,0.0,76,0.00,,,0.00,WUHU21623XXSP,2013-08-03 08:17:00,
2013-08-03 04:22:00,67.8,60.0,30.01,SSE,157,0.0,0.0,76,0.00,,,0.00,WUHU21623XXSP,2013-08-03 08:22:00,
2013-08-03 04:27:00,67.8,60.0,30.01,SSE,157,0.0,0.0,76,0.00,,,0.00,WUHU21623XXSP,2013-08-03 08:27:00,
2013-08-03 04:32:00,67.8,60.0,30.01,SSE,157,0.0,0.0,76,0.00,,,0.00,WUHU21623XXSP,2013-08-03 08:32:00,
2013-08-03 04:37:00,67.8,60.0,30.01,SSE,157,0.0,0.0,76,0.00,,,0.00,WUHU21623XXSP,2013-08-03 08:37:00,
2013-08-03 04:42:00,67.8,60.4,30.01,SSE,157,0.0,0.0,77,0.00,,,0.00,WUHU21623XXSP,2013-08-03 08:42:00,
2013-08-03 04:47:00,67.8,60.0,30.02,SSE,157,0.0,0.0,76,0.00,,,0.00,WUHU21623XXSP,2013-08-03 08:47:00,
2013-08-03 04:52:00,67.6,60.6,30.02,SSE,157,0.0,0.0,78,0.00,,,0.00,WUHU21623XXSP,2013-08-03 08:52:00,
2013-08-03 04:57:00,67.6,60.6,30.02,SSE,157,0.0,0.0,78,0.00,,,0.00,WUHU21623XXSP,2013-08-03 08:57:00,
2013-08-03 05:02:00,67.5,60.4,30.02,SSE,157,0.0,0.0,78,0.00,,,0.00,WUHU21623XXSP,2013-08-03 09:02:00,
2013-08-03 05:07:00,67.3,60.2,30.02,SSE,157,0.0,0.0,78,0.00,,,0.00,WUHU21623XXSP,2013-08-03 09:07:00,
2013-08-03 05:12:00,67.3,60.2,30.02,SSE,157,0.0,0.0,78,0.00,,,0.00,WUHU21623XXSP,2013-08-03 09:12:00,
2013-08-03 05:17:00,67.3,60.2,30.02,SSE,157,0.0,0.0,78,0.00,,,0.00,WUHU21623XXSP,2013-08-03 09:17:00,
2013-08-03 05:22:00,67.3,60.6,30.02,SSE,157,0.0,0.0,79,0.00,,,0.00,WUHU21623XXSP,2013-08-03 09:22:00,
2013-08-03 05:27:00,67.1,60.4,30.02,SSE,157,0.0,0.0,79,0.00,,,0.00,WUHU21623XXSP,2013-08-03 09:27:00,
2013-08-03 05:32:00,67.1,60.4,30.02,SSE,157,0.0,0.0,79,0.00,,,0.00,WUHU21623XXSP,2013-08-03 09:32:00,
2013-08-03 05:37:00,67.1,60.4,30.02,SSE,157,0.0,0.0,79,0.00,,,0.00,WUHU21623XXSP,2013-08-03 09:37:00,
2013-08-03 05:42:00,66.9,60.2,30.01,SSE,157,0.0,0.0,79,0.00,,,0.00,WUHU21623XXSP,2013-08-03 09:42:00,
2013-08-03 05:47:00,66.9,60.6,30.01,SSE,157,0.0,0.0,80,0.00,,,0.00,WUHU21623XXSP,2013-08-03 09:47:00,
2013-08-03 05:52:00,66.7,60.4,30.01,SSE,157,0.0,0.0,80,0.00,,,0.00,WUHU21623XXSP,2013-08-03 09:52:00,
2013-08-03 05:57:00,66.7,60.4,30.01,SSE,157,0.0,0.0,80,0.00,,,0.00,WUHU21623XXSP,2013-08-03 09:57:00,
2013-08-03 06:02:00,66.7,60.4,30.01,SSE,157,0.0,0.0,80,0.00,,,0.00,WUHU21623XXSP,2013-08-03 10:02:00,
2013-08-03 06:07:00,66.7,60.4,30.01,SSE,157,0.0,0.0,80,0.00,,,0.00,WUHU21623XXSP,2013-08-03 10:07:00,
2013-08-03 06:12:00,66.6,60.3,30.01,SSE,157,0.0,0.0,80,0.00,,,0.00,WUHU21623XXSP,2013-08-03 10:12:00,
2013-08-03 06:17:00,66.6,60.3,30.01,SSE,157,0.0,0.0,80,0.00,,,0.00,WUHU21623XXSP,2013-08-03 10:17:00,
2013-08-03 06:22:00,66.6,60.6,30.01,SSE,157,0.0,0.0,81,0.00,,,0.00,WUHU21623XXSP,2013-08-03 10:22:00,
2013-08-03 06:27:00,66.6,60.6,30.01,SSE,157,0.0,0.0,81,0.00,,,0.00,WUHU21623XXSP,2013-08-03 10:27:00,
2013-08-03 06:32:00,66.6,60.6,30.01,SSE,157,0.0,0.0,81,0.00,,,0.00,WUHU21623XXSP,2013-08-03 10:32:00,
2013-08-03 06:37:00,66.4,60.4,30.02,SSE,157,0.0,0.0,81,0.00,,,0.00,WUHU21623XXSP,2013-08-03 10:37:00,
2013-08-03 06:42:00,66.4,60.4,30.02,SSE,157,0.0,0.0,81,0.00,,,0.00,WUHU21623XXSP,2013-08-03 10:42:00,
2013-08-03 06:47:00,66.4,60.4,30.02,SSE,157,0.0,0.0,81,0.00,,,0.00,WUHU21623XXSP,2013-08-03 10:47:00,
2013-08-03 06:52:00,66.4,60.4,30.02,SSE,157,0.0,0.0,81,0.00,,,0.00,WUHU21623XXSP,2013-08-03 10:52:00,
2013-08-03 06:57:00,66.4,60.4,30.02,SSE,157,0.0,0.0,81,0.00,,,0.00,WUHU21623XXSP,2013-08-03 10:57:00,
2013-08-03 07:02:00,66.2,60.2,30.02,SSE,157,0.0,0.0,81,0.00,,,0.00,WUHU21623XXSP,2013-08-03 11:02:00,
2013-08-03 07:07:00,66.2,60.4,30.02,SSE,157,0.0,0.0,82,0.00,,,0.00,WUHU21623XXSP,2013-08-03 11:07:00,
2013-08-03 07:08:00,66.2,60.4,30.02,SSE,157,0.0,0.0,82,0.00,,,0.00,WUHU21623XXSP,2013-08-03 11:08:00,
2013-08-03 07:13:00,66.4,60.7,30.02,SSE,157,0.0,0.0,82,0.00,,,0.00,WUHU21623XXSP,2013-08-03 11:13:00,
2013-08-03 07:18:00,66.6,60.9,30.02,SSE,157,0.0,0.0,82,0.00,,,0.00,WUHU21623XXSP,2013-08-03 11:18:00,
2013-08-03 07:23:00,66.6,60.9,30.02,SSE,157,0.0,0.0,82,0.00,,,0.00,WUHU21623XXSP,2013-08-03 11:23:00,
2013-08-03 07:28:00,66.6,60.9,30.02,SSE,157,0.0,0.0,82,0.00,,,0.00,WUHU21623XXSP,2013-08-03 11:28:00,
2013-08-03 07:33:00,66.6,60.6,30.02,SSE,157,0.0,0.0,81,0.00,,,0.00,WUHU21623XXSP,2013-08-03 11:33:00,
2013-08-03 07:38:00,66.6,60.9,30.02,SSE,157,0.0,0.0,82,0.00,,,0.00,WUHU21623XXSP,2013-08-03 11:38:00,
2013-08-03 07:43:00,66.6,60.9,30.03,SSE,157,0.0,0.0,82,0.00,,,0.00,WUHU21623XXSP,2013-08-03 11:43:00,
2013-08-03 07:48:00,66.7,61.1,30.03,SSE,157,0.0,0.0,82,0.00,,,0.00,WUHU21623XXSP,2013-08-03 11:48:00,
2013-08-03 07:53:00,66.7,60.8,30.03,SSE,157,0.0,0.0,81,0.00,,,0.00,WUHU21623XXSP,2013-08-03 11:53:00,
2013-08-03 07:58:00,66.7,60.8,30.03,SSE,157,0.0,0.0,81,0.00,,,0.00,WUHU21623XXSP,2013-08-03 11:58:00,
2013-08-03 08:02:00,66.9,60.9,30.04,SSE,157,0.0,0.0,81,0.00,,,0.00,WUHU21623XXSP,2013-08-03 12:02:00,
2013-08-03 08:08:00,66.9,60.9,30.03,SSE,157,0.0,0.0,81,0.00,,,0.00,WUHU21623XXSP,2013-08-03 12:08:00,
2013-08-03 08:13:00,66.9,60.9,30.03,SSE,157,0.0,0.0,81,0.00,,,0.00,WUHU21623XXSP,2013-08-03 12:13:00,
2013-08-03 08:18:00,67.1,61.1,30.03,SSE,157,0.0,0.0,81,0.00,,,0.00,WUHU21623XXSP,2013-08-03 12:18:00,
2013-08-03 08:23:00,67.1,61.1,30.03,SSE,157,0.0,0.0,81,0.00,,,0.00,WUHU21623XXSP,2013-08-03 12:23:00,
2013-08-03 08:28:00,67.1,61.1,30.03,SSE,157,0.0,0.0,81,0.00,,,0.00,WUHU21623XXSP,2013-08-03 12:28:00,
2013-08-03 08:32:00,67.1,61.1,30.03,SSE,157,0.0,0.0,81,0.00,,,0.00,WUHU21623XXSP,2013-08-03 12:32:00,
2013-08-03 08:37:00,67.3,61.3,30.03,SSE,157,0.0,0.0,81,0.00,,,0.00,WUHU21623XXSP,2013-08-03 12:37:00,
2013-08-03 08:43:00,67.3,61.3,30.03,SSE,157,0.0,0.0,81,0.00,,,0.00,WUHU21623XXSP,2013-08-03 12:43:00,
2013-08-03 08:48:00,67.3,61.6,30.03,SSE,157,0.0,0.0,82,0.00,,,0.00,WUHU21623XXSP,2013-08-03 12:48:00,
2013-08-03 08:53:00,67.3,61.6,30.02,SSE,157,0.0,0.0,82,0.00,,,0.00,WUHU21623XXSP,2013-08-03 12:53:00,
2013-08-03 08:57:00,67.3,61.6,30.03,SSE,157,0.0,0.0,82,0.00,,,0.00,WUHU21623XXSP,2013-08-03 12:57:00,
2013-08-03 09:03:00,67.3,61.6,30.02,SSE,157,0.0,0.0,82,0.00,,,0.00,WUHU21623XXSP,2013-08-03 13:03:00,
2013-08-03 09:08:00,67.3,61.6,30.02,SSE,157,0.0,0.0,82,0.00,,,0.00,WUHU21623XXSP,2013-08-03 13:08:00,
2013-08-03 09:13:00,67.3,61.6,30.02,SSE,157,0.0,0.0,82,0.00,,,0.00,WUHU21623XXSP,2013-08-03 13:13:00,
2013-08-03 09:18:00,67.6,62.3,30.01,SSE,157,0.0,0.0,83,0.00,,,0.00,WUHU21623XXSP,2013-08-03 13:18:00,
2013-08-03 09:23:00,67.6,62.3,30.01,SSE,157,0.0,0.0,83,0.00,,,0.00,WUHU21623XXSP,2013-08-03 13:23:00,
2013-08-03 09:27:00,67.6,62.3,30.01,SSE,157,0.0,0.0,83,0.00,,,0.00,WUHU21623XXSP,2013-08-03 13:27:00,
2013-08-03 09:33:00,67.8,62.2,30.02,SSE,157,0.0,0.0,82,0.00,,,0.00,WUHU21623XXSP,2013-08-03 13:33:00,
2013-08-03 09:38:00,68.0,62.3,30.02,SSE,157,0.0,0.0,82,0.00,,,0.00,WUHU21623XXSP,2013-08-03 13:38:00,
2013-08-03 09:43:00,67.8,61.8,30.02,SSE,157,0.0,0.0,81,0.00,,,0.00,WUHU21623XXSP,2013-08-03 13:43:00,
2013-08-03 09:48:00,68.2,62.2,30.02,SSE,157,0.0,0.0,81,0.00,,,0.00,WUHU21623XXSP,2013-08-03 13:48:00,
2013-08-03 09:53:00,68.2,62.2,30.02,SSE,157,0.0,0.0,81,0.00,,,0.00,WUHU21623XXSP,2013-08-03 13:53:00,
2013-08-03 09:58:00,68.2,62.2,30.02,SSE,157,0.0,0.0,81,0.00,,,0.00,WUHU21623XXSP,2013-08-03 13:58:00,
2013-08-03 10:03:00,68.2,62.2,30.02,SSE,157,0.0,0.0,81,0.00,,,0.00,WUHU21623XXSP,2013-08-03 14:03:00,
2013-08-03 10:08:00,68.2,62.2,30.02,SSE,157,0.0,0.0,81,0.00,,,0.00,WUHU21623XXSP,2013-08-03 14:08:00,
2013-08-03 10:13:00,68.2,62.2,30.02,SSE,157,0.0,0.0,81,0.00,,,0.00,WUHU21623XXSP,2013-08-03 14:13:00,
2013-08-03 10:18:00,67.8,61.8,30.02,SSE,157,0.0,0.0,81,0.00,,,0.00,WUHU21623XXSP,2013-08-03 14:18:00,
2013-08-03 10:23:00,68.0,62.0,30.02,SSE,157,0.0,0.0,81,0.00,,,0.00,WUHU21623XXSP,2013-08-03 14:23:00,
2013-08-03 10:28:00,68.0,62.0,30.01,SSE,157,0.0,0.0,81,0.00,,,0.00,WUHU21623XXSP,2013-08-03 14:28:00,
2013-08-03 10:33:00,68.2,62.2,30.01,SSE,157,0.0,0.0,81,0.00,,,0.00,WUHU21623XXSP,2013-08-03 14:33:00,
2013-08-03 10:38:00,68.2,62.2,30.02,SSE,157,0.0,0.0,81,0.00,,,0.00,WUHU21623XXSP,2013-08-03 14:38:00,
2013-08-03 10:43:00,68.2,62.2,30.02,WNW,292,0.0,0.0,81,0.00,,,0.00,WUHU21623XXSP,2013-08-03 14:43:00,
2013-08-03 10:48:00,68.2,61.9,30.02,WNW,292,0.0,0.0,80,0.00,,,0.00,WUHU21623XXSP,2013-08-03 14:48:00,
2013-08-03 10:53:00,67.8,61.5,30.03,WNW,292,0.0,0.0,80,0.00,,,0.00,WUHU21623XXSP,2013-08-03 14:53:00,
2013-08-03 10:58:00,67.8,61.8,30.02,WNW,292,0.0,0.0,81,0.00,,,0.00,WUHU21623XXSP,2013-08-03 14:58:00,
2013-08-03 11:03:00,67.8,61.8,30.02,WNW,292,0.0,0.0,81,0.00,,,0.00,WUHU21623XXSP,2013-08-03 15:03:00,
2013-08-03 11:08:00,67.8,61.8,30.02,WNW,292,0.0,0.0,81,0.00,,,0.00,WUHU21623XXSP,2013-08-03 15:08:00,
2013-08-03 11:13:00,67.8,61.8,30.02,WNW,292,0.0,0.0,81,0.00,,,0.00,WUHU21623XXSP,2013-08-03 15:13:00,
2013-08-03 11:18:00,67.8,61.8,30.02,WNW,292,0.0,0.0,81,0.00,,,0.00,WUHU21623XXSP,2013-08-03 15:18:00,
2013-08-03 11:23:00,67.8,61.8,30.01,WNW,292,0.0,0.0,81,0.00,,,0.00,WUHU21623XXSP,2013-08-03 15:23:00,
2013-08-03 11:28:00,67.8,61.8,30.02,WNW,292,0.0,0.0,81,0.00,,,0.00,WUHU21623XXSP,2013-08-03 15:28:00,
2013-08-03 11:33:00,67.8,61.8,30.02,WNW,292,0.0,0.0,81,0.00,,,0.00,WUHU21623XXSP,2013-08-03 15:33:00,
2013-08-03 11:38:00,67.8,61.8,30.02,WNW,292,0.0,0.0,81,0.00,,,0.00,WUHU21623XXSP,2013-08-03 15:38:00,
2013-08-03 11:43:00,67.8,61.8,30.02,WNW,292,0.0,0.0,81,0.00,,,0.00,WUHU21623XXSP,2013-08-03 15:43:00,
2013-08-03 11:48:00,67.8,61.8,30.02,WNW,292,0.0,0.0,81,0.00,,,0.00,WUHU21623XXSP,2013-08-03 15:48:00,
2013-08-03 11:53:00,67.8,61.8,30.02,WNW,292,0.0,0.0,81,0.00,,,0.00,WUHU21623XXSP,2013-08-03 15:53:00,
2013-08-03 11:58:00,67.8,61.8,30.02,WNW,292,0.0,0.0,81,0.00,,,0.00,WUHU21623XXSP,2013-08-03 15:58:00,
2013-08-03 12:03:00,67.8,61.5,30.02,WNW,292,0.0,0.0,80,0.00,,,0.00,WUHU21623XXSP,2013-08-03 16:03:00,
2013-08-03 12:08:00,67.8,61.5,30.02,WNW,292,0.0,0.0,80,0.00,,,0.00,WUHU21623XXSP,2013-08-03 16:08:00,
2013-08-03 12:13:00,67.6,61.3,30.03,WNW,292,0.0,0.0,80,0.00,,,0.00,WUHU21623XXSP,2013-08-03 16:13:00,
2013-08-03 12:18:00,67.6,61.3,30.02,WNW,292,0.0,0.0,80,0.00,,,0.00,WUHU21623XXSP,2013-08-03 16:18:00,
2013-08-03 12:23:00,67.6,61.7,30.02,WNW,292,0.0,0.0,81,0.00,,,0.00,WUHU21623XXSP,2013-08-03 16:23:00,
2013-08-03 12:28:00,67.3,61.0,30.02,WNW,292,0.0,0.0,80,0.00,,,0.00,WUHU21623XXSP,2013-08-03 16:28:00,
2013-08-03 12:33:00,67.1,60.8,30.03,WNW,292,0.0,0.0,80,0.00,,,0.00,WUHU21623XXSP,2013-08-03 16:33:00,
2013-08-03 12:38:00,67.1,60.8,30.03,WNW,292,0.0,0.0,80,0.00,,,0.00,WUHU21623XXSP,2013-08-03 16:38:00,
2013-08-03 12:43:00,66.9,60.9,30.02,WNW,292,0.0,0.0,81,0.00,,,0.00,WUHU21623XXSP,2013-08-03 16:43:00,
2013-08-03 12:48:00,66.9,61.3,30.03,WNW,292,0.0,0.0,82,0.00,,,0.00,WUHU21623XXSP,2013-08-03 16:48:00,
2013-08-03 12:53:00,66.7,60.8,30.02,WNW,292,0.0,0.0,81,0.00,,,0.00,WUHU21623XXSP,2013-08-03 16:53:00,
2013-08-03 12:58:00,66.6,60.9,30.02,WNW,292,0.0,0.0,82,0.00,,,0.00,WUHU21623XXSP,2013-08-03 16:58:00,
2013-08-03 13:03:00,66.0,60.7,30.03,WNW,292,0.0,0.0,83,0.00,,,0.00,WUHU21623XXSP,2013-08-03 17:03:00,
2013-08-03 13:08:00,66.0,60.9,30.03,WNW,292,0.0,0.0,83,0.00,,,0.00,WUHU21623XXSP,2013-08-03 17:08:00,
2013-08-03 13:13:00,66.2,60.9,30.03,WNW,292,0.0,0.0,83,0.00,,,0.00,WUHU21623XXSP,2013-08-03 17:13:00,
2013-08-03 13:18:00,66.6,61.2,30.03,WNW,292,0.0,0.0,83,0.00,,,0.00,WUHU21623XXSP,2013-08-03 17:18:00,
2013-08-03 13:23:00,66.7,61.4,30.02,WNW,292,0.0,0.0,83,0.00,,,0.00,WUHU21623XXSP,2013-08-03 17:23:00,
2013-08-03 13:28:00,66.7,61.1,30.02,WNW,292,0.0,0.0,82,0.00,,,0.00,WUHU21623XXSP,2013-08-03 17:28:00,
2013-08-03 13:33:00,66.7,61.1,30.02,WNW,292,0.0,0.0,82,0.00,,,0.00,WUHU21623XXSP,2013-08-03 17:33:00,
2013-08-03 13:38:00,66.9,61.3,30.02,WNW,292,0.0,0.0,82,0.00,,,0.00,WUHU21623XXSP,2013-08-03 17:38:00,
2013-08-03 13:43:00,66.9,61.9,30.02,WNW,292,0.0,0.0,84,0.00,,,0.00,WUHU21623XXSP,2013-08-03 17:43:00,
2013-08-03 13:48:00,66.9,61.9,30.02,WNW,292,0.0,0.0,84,0.00,,,0.00,WUHU21623XXSP,2013-08-03 17:48:00,
2013-08-03 13:53:00,67.1,62.1,30.02,WNW,292,0.0,0.0,84,0.00,,,0.00,WUHU21623XXSP,2013-08-03 17:53:00,
2013-08-03 13:58:00,67.3,62.3,30.02,WNW,292,0.0,0.0,84,0.00,,,0.00,WUHU21623XXSP,2013-08-03 17:58:00,
2013-08-03 14:03:00,67.3,62.3,30.02,WNW,292,0.0,0.0,84,0.00,,,0.00,WUHU21623XXSP,2013-08-03 18:03:00,
2013-08-03 14:08:00,67.1,61.8,30.02,WNW,292,0.0,0.0,83,0.00,,,0.00,WUHU21623XXSP,2013-08-03 18:08:00,
2013-08-03 14:13:00,67.1,62.1,30.01,WNW,292,0.0,0.0,84,0.00,,,0.00,WUHU21623XXSP,2013-08-03 18:13:00,
2013-08-03 14:18:00,67.1,62.1,30.02,WNW,292,0.0,0.0,84,0.00,,,0.00,WUHU21623XXSP,2013-08-03 18:18:00,
2013-08-03 14:23:00,67.1,62.1,30.01,WNW,292,0.0,0.0,84,0.00,,,0.00,WUHU21623XXSP,2013-08-03 18:23:00,
2013-08-03 14:28:00,67.3,62.3,30.01,WNW,292,0.0,0.0,84,0.00,,,0.00,WUHU21623XXSP,2013-08-03 18:28:00,
2013-08-03 14:33:00,67.3,62.3,30.02,WNW,292,0.0,0.0,84,0.00,,,0.00,WUHU21623XXSP,2013-08-03 18:33:00,
2013-08-03 14:38:00,67.3,62.3,30.02,WNW,292,0.0,0.0,84,0.00,,,0.00,WUHU21623XXSP,2013-08-03 18:38:00,
2013-08-03 14:43:00,66.9,61.9,30.02,WNW,292,0.0,0.0,84,0.00,,,0.00,WUHU21623XXSP,2013-08-03 18:43:00,
2013-08-03 14:48:00,66.9,61.6,30.01,WNW,292,0.0,0.0,83,0.00,,,0.00,WUHU21623XXSP,2013-08-03 18:48:00,
2013-08-03 14:53:00,66.7,61.6,30.02,WNW,292,0.0,0.0,83,0.00,,,0.00,WUHU21623XXSP,2013-08-03 18:53:00,
2013-08-03 14:58:00,66.7,61.4,30.01,WNW,292,0.0,0.0,83,0.00,,,0.00,WUHU21623XXSP,2013-08-03 18:58:00,
2013-08-03 15:03:00,66.7,61.7,30.01,WNW,292,0.0,0.0,84,0.00,,,0.00,WUHU21623XXSP,2013-08-03 19:03:00,
2013-08-03 15:08:00,66.6,61.7,30.01,NW,315,0.0,0.0,83,0.00,,,0.00,WUHU21623XXSP,2013-08-03 19:08:00,
2013-08-03 15:13:00,66.0,60.7,30.01,NNW,337,0.0,0.0,83,0.00,,,0.00,WUHU21623XXSP,2013-08-03 19:13:00,
2013-08-03 15:18:00,65.8,60.7,30.01,NNW,337,0.0,0.0,83,0.00,,,0.00,WUHU21623XXSP,2013-08-03 19:18:00,
2013-08-03 15:23:00,65.8,60.8,30.01,NNW,337,0.0,0.0,84,0.00,,,0.00,WUHU21623XXSP,2013-08-03 19:23:00,
2013-08-03 15:28:00,65.8,61.2,30.01,NNE,22,0.0,0.0,85,0.00,,,0.00,WUHU21623XXSP,2013-08-03 19:28:00,
2013-08-03 15:33:00,65.5,60.8,30.01,NNE,22,0.0,0.0,85,0.00,,,0.00,WUHU21623XXSP,2013-08-03 19:33:00,
2013-08-03 15:38:00,65.1,60.7,30.01,NNE,22,0.0,0.0,86,0.00,,,0.00,WUHU21623XXSP,2013-08-03 19:38:00,
2013-08-03 15:43:00,64.9,60.7,30.01,NNE,22,0.0,0.0,86,0.00,,,0.00,WUHU21623XXSP,2013-08-03 19:43:00,
2013-08-03 15:48:00,64.9,61.0,30.01,NNE,22,0.0,0.0,87,0.00,,,0.00,WUHU21623XXSP,2013-08-03 19:48:00,
2013-08-03 15:53:00,64.9,61.0,30.01,NNE,22,0.0,0.0,87,0.00,,,0.00,WUHU21623XXSP,2013-08-03 19:53:00,
2013-08-03 15:58:00,64.9,61.0,30.01,NNE,22,0.0,0.0,87,0.00,,,0.00,WUHU21623XXSP,2013-08-03 19:58:00,
2013-08-03 16:03:00,64.9,61.0,30.01,NNE,22,0.0,0.0,87,0.01,,,0.01,WUHU21623XXSP,2013-08-03 20:03:00,
2013-08-03 16:08:00,64.8,60.8,30.01,NNE,22,0.0,0.0,87,0.03,,,0.03,WUHU21623XXSP,2013-08-03 20:08:00,
2013-08-03 16:13:00,64.8,61.2,30.01,NNE,22,0.0,0.0,88,0.03,,,0.03,WUHU21623XXSP,2013-08-03 20:13:00,
2013-08-03 16:18:00,64.9,61.3,30.01,NNE,22,0.0,0.0,88,0.03,,,0.03,WUHU21623XXSP,2013-08-03 20:18:00,
2013-08-03 16:23:00,64.8,61.2,30.00,NNE,22,0.0,0.0,88,0.03,,,0.03,WUHU21623XXSP,2013-08-03 20:23:00,
2013-08-03 16:28:00,64.9,61.3,30.00,NNE,22,0.0,0.0,88,0.00,,,0.00,WUHU21623XXSP,2013-08-03 20:28:00,
2013-08-03 16:33:00,65.1,61.5,30.00,NNE,22,0.0,0.0,88,0.00,,,0.00,WUHU21623XXSP,2013-08-03 20:33:00,
2013-08-03 16:38:00,65.3,61.7,29.99,NNE,22,0.0,0.0,88,0.00,,,0.00,WUHU21623XXSP,2013-08-03 20:38:00,
2013-08-03 16:43:00,65.8,62.2,29.99,ENE,67,0.0,0.0,88,0.00,,,0.00,WUHU21623XXSP,2013-08-03 20:43:00,
2013-08-03 16:48:00,66.0,62.3,30.00,ENE,67,0.0,0.0,88,0.00,,,0.00,WUHU21623XXSP,2013-08-03 20:48:00,
2013-08-03 16:53:00,66.0,62.3,30.00,ENE,67,0.0,0.0,88,0.00,,,0.00,WUHU21623XXSP,2013-08-03 20:53:00,
2013-08-03 16:58:00,66.0,62.3,30.00,ENE,67,0.0,0.0,88,0.00,,,0.00,WUHU21623XXSP,2013-08-03 20:58:00,
2013-08-03 17:03:00,66.2,62.5,30.00,ENE,67,0.0,0.0,88,0.00,,,0.00,WUHU21623XXSP,2013-08-03 21:03:00,
2013-08-03 17:08:00,66.2,62.5,29.99,ENE,67,0.0,0.0,88,0.00,,,0.00,WUHU21623XXSP,2013-08-03 21:08:00,
2013-08-03 17:13:00,66.6,62.9,30.00,ENE,67,0.0,0.0,88,0.00,,,0.00,WUHU21623XXSP,2013-08-03 21:13:00,
2013-08-03 17:18:00,66.7,63.0,29.99,ENE,67,0.0,0.0,88,0.01,,,0.01,WUHU21623XXSP,2013-08-03 21:18:00,
2013-08-03 17:23:00,66.7,63.0,29.99,ENE,67,0.0,0.0,88,0.01,,,0.01,WUHU21623XXSP,2013-08-03 21:23:00,
2013-08-03 17:28:00,66.9,63.2,29.99,ENE,67,0.0,0.0,88,0.01,,,0.01,WUHU21623XXSP,2013-08-03 21:28:00,
2013-08-03 17:33:00,66.9,63.2,29.99,ENE,67,0.0,0.0,88,0.01,,,0.01,WUHU21623XXSP,2013-08-03 21:33:00,
2013-08-03 17:38:00,67.3,63.6,30.00,East,90,0.0,0.0,88,0.01,,,0.01,WUHU21623XXSP,2013-08-03 21:38:00,
2013-08-03 17:43:00,67.3,63.6,30.00,East,90,0.0,0.0,88,0.01,,,0.01,WUHU21623XXSP,2013-08-03 21:43:00,
2013-08-03 17:48:00,67.3,63.6,30.00,East,90,0.0,0.0,88,0.01,,,0.01,WUHU21623XXSP,2013-08-03 21:48:00,
2013-08-03 17:53:00,67.3,63.2,30.00,East,90,0.0,0.0,87,0.01,,,0.01,WUHU21623XXSP,2013-08-03 21:53:00,
2013-08-03 17:58:00,67.6,63.6,29.99,East,90,0.0,0.0,87,0.01,,,0.01,WUHU21623XXSP,2013-08-03 21:58:00,
2013-08-03 18:03:00,67.6,63.6,29.99,East,90,0.0,0.0,87,0.01,,,0.01,WUHU21623XXSP,2013-08-03 22:03:00,
2013-08-03 18:08:00,67.6,63.6,29.99,East,90,0.0,0.0,87,0.01,,,0.01,WUHU21623XXSP,2013-08-03 22:08:00,
2013-08-03 18:13:00,67.8,63.8,29.99,East,90,0.0,0.0,87,0.01,,,0.01,WUHU21623XXSP,2013-08-03 22:13:00,
2013-08-03 18:18:00,67.8,63.8,29.99,East,90,0.0,0.0,87,0.00,,,0.01,WUHU21623XXSP,2013-08-03 22:18:00,
2013-08-03 18:23:00,67.8,63.8,30.00,East,90,0.0,0.0,87,0.00,,,0.01,WUHU21623XXSP,2013-08-03 22:23:00,
2013-08-03 18:28:00,67.8,63.8,30.00,East,90,0.0,0.0,87,0.00,,,0.01,WUHU21623XXSP,2013-08-03 22:28:00,
2013-08-03 18:33:00,67.8,63.8,30.00,East,90,0.0,0.0,87,0.00,,,0.01,WUHU21623XXSP,2013-08-03 22:33:00,
2013-08-03 18:38:00,67.8,63.8,30.00,East,90,0.0,0.0,87,0.00,,,0.01,WUHU21623XXSP,2013-08-03 22:38:00,
2013-08-03 18:43:00,68.2,64.1,30.00,East,90,0.0,0.0,87,0.00,,,0.01,WUHU21623XXSP,2013-08-03 22:43:00,
2013-08-03 18:48:00,68.5,64.5,30.00,East,90,0.0,0.0,87,0.00,,,0.01,WUHU21623XXSP,2013-08-03 22:48:00,
2013-08-03 18:53:00,68.7,64.7,30.00,East,90,0.0,0.0,87,0.00,,,0.01,WUHU21623XXSP,2013-08-03 22:53:00,
2013-08-03 18:58:00,68.9,64.5,30.00,East,90,0.0,0.0,86,0.00,,,0.01,WUHU21623XXSP,2013-08-03 22:58:00,
2013-08-03 19:03:00,68.9,64.5,30.00,East,90,0.0,0.0,86,0.00,,,0.01,WUHU21623XXSP,2013-08-03 23:03:00,
2013-08-03 19:08:00,69.1,64.7,29.99,East,90,0.0,0.0,86,0.00,,,0.01,WUHU21623XXSP,2013-08-03 23:08:00,
2013-08-03 19:13:00,69.3,64.8,30.00,East,90,0.0,0.0,86,0.00,,,0.01,WUHU21623XXSP,2013-08-03 23:13:00,
2013-08-03 19:18:00,69.4,65.0,30.00,East,90,0.0,0.0,86,0.00,,,0.01,WUHU21623XXSP,2013-08-03 23:18:00,
2013-08-03 19:23:00,69.6,64.8,30.00,East,90,0.0,0.0,85,0.00,,,0.01,WUHU21623XXSP,2013-08-03 23:23:00,
2013-08-03 19:28:00,69.4,64.3,30.00,East,90,0.0,0.0,84,0.00,,,0.01,WUHU21623XXSP,2013-08-03 23:28:00,
2013-08-03 19:33:00,69.4,64.3,30.00,ESE,112,0.0,0.0,84,0.00,,,0.01,WUHU21623XXSP,2013-08-03 23:33:00,
2013-08-03 19:38:00,69.3,64.5,30.00,East,90,0.0,0.0,85,0.00,,,0.01,WUHU21623XXSP,2013-08-03 23:38:00,
2013-08-03 19:43:00,69.1,64.3,30.00,East,90,0.0,0.0,85,0.00,,,0.01,WUHU21623XXSP,2013-08-03 23:43:00,
2013-08-03 19:48:00,68.9,63.8,30.00,East,90,0.0,0.0,84,0.00,,,0.01,WUHU21623XXSP,2013-08-03 23:48:00,
2013-08-03 19:53:00,68.7,64.0,30.00,East,90,0.0,0.0,85,0.00,,,0.01,WUHU21623XXSP,2013-08-03 23:53:00,
2013-08-03 19:58:00,68.7,64.0,30.00,East,90,0.0,0.0,85,0.00,,,0.01,WUHU21623XXSP,2013-08-03 23:58:00,
2013-08-03 20:03:00,68.5,63.8,30.00,East,90,0.0,0.0,85,0.00,,,0.01,WUHU21623XXSP,2013-08-04 00:03:00,
2013-08-03 20:08:00,68.4,63.7,30.01,East,90,0.0,0.0,85,0.00,,,0.01,WUHU21623XXSP,2013-08-04 00:08:00,
2013-08-03 20:13:00,68.2,63.5,30.01,East,90,0.0,0.0,85,0.00,,,0.01,WUHU21623XXSP,2013-08-04 00:13:00,
2013-08-03 20:18:00,67.8,63.1,30.01,East,90,0.0,0.0,85,0.00,,,0.01,WUHU21623XXSP,2013-08-04 00:18:00,
2013-08-03 20:23:00,67.8,63.1,30.01,East,90,0.0,0.0,85,0.00,,,0.01,WUHU21623XXSP,2013-08-04 00:23:00,
2013-08-03 20:28:00,67.6,63.0,30.01,East,90,0.0,0.0,85,0.00,,,0.01,WUHU21623XXSP,2013-08-04 00:28:00,
2013-08-03 20:33:00,67.6,63.0,30.01,East,90,0.0,0.0,85,0.00,,,0.01,WUHU21623XXSP,2013-08-04 00:33:00,
2013-08-03 20:38:00,67.5,62.8,30.01,East,90,0.0,0.0,85,0.00,,,0.01,WUHU21623XXSP,2013-08-04 00:38:00,
2013-08-03 20:43:00,67.3,62.6,30.01,East,90,0.0,0.0,85,0.00,,,0.01,WUHU21623XXSP,2013-08-04 00:43:00,
2013-08-03 20:48:00,67.3,62.9,30.01,East,90,0.0,0.0,86,0.00,,,0.01,WUHU21623XXSP,2013-08-04 00:48:00,
2013-08-03 20:53:00,67.3,62.9,30.02,East,90,0.0,0.0,86,0.00,,,0.01,WUHU21623XXSP,2013-08-04 00:53:00,
2013-08-03 20:58:00,67.1,62.7,30.01,East,90,0.0,0.0,86,0.00,,,0.01,WUHU21623XXSP,2013-08-04 00:58:00,
2013-08-03 21:03:00,66.9,62.6,30.01,East,90,0.0,0.0,86,0.00,,,0.01,WUHU21623XXSP,2013-08-04 01:03:00,
2013-08-03 21:08:00,66.9,62.6,30.01,East,90,0.0,0.0,86,0.00,,,0.01,WUHU21623XXSP,2013-08-04 01:08:00,
2013-08-03 21:13:00,66.7,62.4,30.01,East,90,0.0,0.0,86,0.00,,,0.01,WUHU21623XXSP,2013-08-04 01:13:00,
2013-08-03 21:18:00,66.7,62.4,30.01,East,90,0.0,0.0,86,0.00,,,0.01,WUHU21623XXSP,2013-08-04 01:18:00,
2013-08-03 21:23:00,66.7,62.4,30.01,East,90,0.0,0.0,86,0.00,,,0.01,WUHU21623XXSP,2013-08-04 01:23:00,
2013-08-03 21:28:00,66.6,62.2,30.02,East,90,0.0,0.0,86,0.00,,,0.01,WUHU21623XXSP,2013-08-04 01:28:00,
2013-08-03 21:33:00,66.6,62.2,30.01,East,90,0.0,0.0,86,0.00,,,0.01,WUHU21623XXSP,2013-08-04 01:33:00,
2013-08-03 21:38:00,66.6,62.2,30.02,East,90,0.0,0.0,86,0.00,,,0.01,WUHU21623XXSP,2013-08-04 01:38:00,
2013-08-03 21:43:00,66.4,62.0,30.02,East,90,0.0,0.0,86,0.00,,,0.01,WUHU21623XXSP,2013-08-04 01:43:00,
2013-08-03 21:48:00,66.4,62.0,30.02,East,90,0.0,0.0,86,0.00,,,0.01,WUHU21623XXSP,2013-08-04 01:48:00,
2013-08-03 21:53:00,66.4,62.0,30.02,East,90,0.0,0.0,86,0.00,,,0.01,WUHU21623XXSP,2013-08-04 01:53:00,
2013-08-03 21:58:00,66.2,61.8,30.02,East,90,0.0,0.0,86,0.00,,,0.01,WUHU21623XXSP,2013-08-04 01:58:00,
2013-08-03 22:03:00,66.0,62.0,30.02,East,90,0.0,0.0,87,0.00,,,0.01,WUHU21623XXSP,2013-08-04 02:03:00,
2013-08-03 22:08:00,66.0,62.0,30.02,East,90,0.0,0.0,87,0.00,,,0.01,WUHU21623XXSP,2013-08-04 02:08:00,
2013-08-03 22:13:00,66.0,62.0,30.02,East,90,0.0,0.0,87,0.00,,,0.01,WUHU21623XXSP,2013-08-04 02:13:00,
2013-08-03 22:18:00,65.8,61.8,30.02,East,90,0.0,0.0,87,0.00,,,0.01,WUHU21623XXSP,2013-08-04 02:18:00,
2013-08-03 22:23:00,65.8,61.8,30.02,East,90,0.0,0.0,87,0.00,,,0.01,WUHU21623XXSP,2013-08-04 02:23:00,
2013-08-03 22:28:00,65.7,61.7,30.02,East,90,0.0,0.0,87,0.00,,,0.01,WUHU21623XXSP,2013-08-04 02:28:00,
2013-08-03 22:33:00,65.7,61.7,30.02,East,90,0.0,0.0,87,0.00,,,0.01,WUHU21623XXSP,2013-08-04 02:33:00,
2013-08-03 22:38:00,65.5,61.5,30.02,East,90,0.0,0.0,87,0.00,,,0.01,WUHU21623XXSP,2013-08-04 02:38:00,
2013-08-03 22:43:00,65.5,61.5,30.02,East,90,0.0,0.0,87,0.00,,,0.01,WUHU21623XXSP,2013-08-04 02:43:00,
2013-08-03 22:48:00,65.3,61.3,30.02,ESE,112,0.0,0.0,87,0.00,,,0.01,WUHU21623XXSP,2013-08-04 02:48:00,
2013-08-03 22:53:00,65.3,61.3,30.02,ESE,112,0.0,0.0,87,0.00,,,0.01,WUHU21623XXSP,2013-08-04 02:53:00,
2013-08-03 22:58:00,65.1,61.2,30.02,ESE,112,0.0,0.0,87,0.00,,,0.01,WUHU21623XXSP,2013-08-04 02:58:00,
2013-08-03 23:03:00,65.1,61.2,30.03,ESE,112,0.0,0.0,87,0.00,,,0.01,WUHU21623XXSP,2013-08-04 03:03:00,
2013-08-03 23:08:00,65.1,61.2,30.02,ESE,112,0.0,0.0,87,0.00,,,0.01,WUHU21623XXSP,2013-08-04 03:08:00,
2013-08-03 23:13:00,64.9,61.0,30.03,ESE,112,0.0,0.0,87,0.00,,,0.01,WUHU21623XXSP,2013-08-04 03:13:00,
2013-08-03 23:18:00,64.9,61.0,30.03,ESE,112,0.0,0.0,87,0.00,,,0.01,WUHU21623XXSP,2013-08-04 03:18:00,
2013-08-03 23:23:00,64.9,61.0,30.03,ESE,112,0.0,0.0,87,0.00,,,0.01,WUHU21623XXSP,2013-08-04 03:23:00,
2013-08-03 23:28:00,64.9,61.0,30.03,ESE,112,0.0,0.0,87,0.00,,,0.01,WUHU21623XXSP,2013-08-04 03:28:00,
2013-08-03 23:33:00,64.8,60.8,30.02,ESE,112,0.0,0.0,87,0.00,,,0.01,WUHU21623XXSP,2013-08-04 03:33:00,
2013-08-03 23:38:00,64.6,60.8,30.02,ESE,112,0.0,0.0,87,0.00,,,0.01,WUHU21623XXSP,2013-08-04 03:38:00,
2013-08-03 23:43:00,64.6,60.7,30.03,ESE,112,0.0,0.0,87,0.00,,,0.01,WUHU21623XXSP,2013-08-04 03:43:00,
2013-08-03 23:48:00,64.6,60.7,30.02,ESE,112,0.0,0.0,87,0.00,,,0.01,WUHU21623XXSP,2013-08-04 03:48:00,
2013-08-03 23:53:00,64.6,60.7,30.02,ESE,112,0.0,0.0,87,0.00,,,0.01,WUHU21623XXSP,2013-08-04 03:53:00,
2013-08-03 23:58:00,64.6,60.7,30.03,ESE,112,0.0,0.0,87,0.00,,,0.01,WUHU21623XXSP,2013-08-04 03:58:00,